����,���ϕ���(m/s),���ϕ���,�ő�u�ԕ���(m/s),�ő啗��������,�C��(��),���x(%),10���Ԉړ��ώZ�J��(mm),1���Ԉړ��ώZ�J��(mm),���J��(mm),�݌v�J��(mm),����(���ώZ)(MJ/m2),����(���ώZ)(min),���n�C��(hPa),�C�ʋC��(hPa)
2020-11-23T00:00:00+09:00,1.7,��쐼,3,��쐼,12.8,93.9,0,0,0,0,10.14,273,1002.9,1016.9
2020-11-23T00:01:00+09:00,1.7,��쐼,3,��쐼,12.8,94,0,0,0,0,0,0,1002.9,1016.9
2020-11-23T00:02:00+09:00,1.7,��쐼,3,��쐼,12.8,94.1,0,0,0,0,0,0,1002.9,1016.9
2020-11-23T00:03:00+09:00,1.7,��쐼,3,��,12.8,94.3,0,0,0,0,0,0,1002.9,1016.9
2020-11-23T00:04:00+09:00,1.6,��쐼,3,��,12.8,94.5,0,0,0,0,0,0,1002.9,1016.9
2020-11-23T00:05:00+09:00,1.6,��쐼,3,��,12.8,94.8,0,0,0,0,0,0,1003,1017
2020-11-23T00:06:00+09:00,1.6,��쐼,3,��,12.7,94.6,0,0,0,0,0,0,1002.9,1016.9
2020-11-23T00:07:00+09:00,1.6,��쐼,3,��,12.7,94.7,0,0,0,0,0,0,1002.9,1016.9
2020-11-23T00:08:00+09:00,1.6,��쐼,3,��,12.7,94.9,0,0,0,0,0,0,1002.9,1016.9
2020-11-23T00:09:00+09:00,1.5,��쐼,3,��,12.8,95.3,0,0,0,0,0,0,1002.8,1016.8
2020-11-23T00:10:00+09:00,1.4,�쐼,3,��,12.8,95.4,0,0,0,0,0,0,1002.8,1016.8
2020-11-23T00:11:00+09:00,1.4,�쐼,3,��,12.7,95.4,0,0,0,0,0,0,1002.8,1016.8
2020-11-23T00:12:00+09:00,1.3,�쐼,2.7,��쐼,12.6,95.2,0,0,0,0,0,0,1002.9,1016.9
2020-11-23T00:13:00+09:00,1.2,�쐼,2.3,��쐼,12.8,95.5,0,0,0,0,0,0,1002.9,1016.9
2020-11-23T00:14:00+09:00,1.1,�쐼,2.2,�쐼,12.7,95.5,0,0,0,0,0,0,1002.9,1016.9
2020-11-23T00:15:00+09:00,1,�쐼,1.9,�쐼,12.9,95.7,0,0,0,0,0,0,1002.8,1016.8
2020-11-23T00:16:00+09:00,0.9,�쐼,1.9,�쐼,12.7,95.6,0,0,0,0,0,0,1002.8,1016.8
2020-11-23T00:17:00+09:00,0.8,�쐼,1.6,�쐼,12.7,95.5,0,0,0,0,0,0,1002.8,1016.8
2020-11-23T00:18:00+09:00,0.8,�쐼,1.6,�쐼,12.7,95.7,0,0,0,0,0,0,1002.8,1016.8
2020-11-23T00:19:00+09:00,0.8,�쐼,1.6,�쐼,12.8,95.6,0,0,0,0,0,0,1002.8,1016.8
2020-11-23T00:20:00+09:00,0.9,�쐼,2.2,��쐼,12.7,95.7,0,0,0,0,0,0,1002.8,1016.8
2020-11-23T00:21:00+09:00,0.9,�쐼,2.2,��쐼,12.7,95.6,0,0,0,0,0,0,1002.8,1016.8
2020-11-23T00:22:00+09:00,0.9,�쐼,2.2,��쐼,12.7,95.6,0,0,0,0,0,0,1002.8,1016.8
2020-11-23T00:23:00+09:00,0.9,�쐼,2.2,��쐼,12.7,95.7,0,0,0,0,0,0,1002.9,1016.9
2020-11-23T00:24:00+09:00,0.9,�쐼,2.2,��쐼,12.7,95.7,0,0,0,0,0,0,1002.8,1016.8
2020-11-23T00:25:00+09:00,0.9,�쐼,2.2,��쐼,12.5,95.6,0,0,0,0,0,0,1002.8,1016.8
2020-11-23T00:26:00+09:00,0.9,�쐼,2.2,��쐼,12.6,95.7,0,0,0,0,0,0,1002.8,1016.8
2020-11-23T00:27:00+09:00,0.9,�쐼,2.2,��쐼,12.8,95.9,0,0,0,0,0,0,1002.8,1016.8
2020-11-23T00:28:00+09:00,0.9,�쐼,2.2,��쐼,12.8,95.9,0,0,0,0,0,0,1002.8,1016.8
2020-11-23T00:29:00+09:00,0.9,�쐼,2.2,��쐼,13,96,0,0,0,0,0,0,1002.8,1016.8
2020-11-23T00:30:00+09:00,0.8,�쐼,2,��쐼,12.9,96.1,0,0,0,0,0,0,1002.9,1016.9
2020-11-23T00:31:00+09:00,0.7,�쐼,2,��쐼,12.8,95.8,0,0,0,0,0,0,1002.9,1016.9
2020-11-23T00:32:00+09:00,0.5,�쐼,1.6,�쐼,12.7,95.7,0,0,0,0,0,0,1002.9,1016.9
2020-11-23T00:33:00+09:00,0.4,�쐼,1.3,���쐼,12.8,95.8,0,0,0,0,0,0,1002.9,1016.9
2020-11-23T00:34:00+09:00,0.4,�쐼,1.1,�쐼,12.8,95.8,0,0,0,0,0,0,1002.9,1016.9
2020-11-23T00:35:00+09:00,0.4,�쐼,1.1,�쐼,12.9,95.9,0,0,0,0,0,0,1002.8,1016.8
2020-11-23T00:36:00+09:00,0.4,�쐼,1.1,�쐼,12.7,95.8,0,0,0,0,0,0,1002.8,1016.8
2020-11-23T00:37:00+09:00,0.3,�쐼,1.1,�쐼,12.6,95.5,0,0,0,0,0,0,1002.8,1016.8
2020-11-23T00:38:00+09:00,0.3,�쐼,1,��,12.7,95.6,0,0,0,0,0,0,1002.8,1016.8
2020-11-23T00:39:00+09:00,0.3,�쐼,1,��,12.7,95.8,0,0,0,0,0,0,1002.8,1016.8
2020-11-23T00:40:00+09:00,0.4,�쐼,1,��,12.7,95.7,0,0,0,0,0,0,1002.8,1016.8
2020-11-23T00:41:00+09:00,0.4,�쐼,1,��,12.6,95.7,0,0,0,0,0,0,1002.7,1016.7
2020-11-23T00:42:00+09:00,0.4,�쐼,1,��,12.6,95.8,0,0,0,0,0,0,1002.7,1016.7
2020-11-23T00:43:00+09:00,0.4,�쐼,1,��,12.6,95.8,0,0,0,0,0,0,1002.7,1016.7
2020-11-23T00:44:00+09:00,0.3,�쐼,1,��,12.7,95.9,0,0,0,0,0,0,1002.7,1016.7
2020-11-23T00:45:00+09:00,0.3,�쐼,1,��쐼,12.8,96,0,0,0,0,0,0,1002.8,1016.8
2020-11-23T00:46:00+09:00,0.3,�쐼,1,��쐼,12.8,96.1,0,0,0,0,0,0,1002.7,1016.7
2020-11-23T00:47:00+09:00,0.2,�É�,1,��쐼,12.7,95.9,0,0,0,0,0,0,1002.7,1016.7
2020-11-23T00:48:00+09:00,0.2,�É�,1,��쐼,12.6,95.8,0,0,0,0,0,0,1002.7,1016.7
2020-11-23T00:49:00+09:00,0.2,�É�,1,��쐼,12.7,96,0,0,0,0,0,0,1002.8,1016.8
2020-11-23T00:50:00+09:00,0.1,�É�,0.6,��쐼,12.7,95.9,0,0,0,0,0,0,1002.8,1016.8
2020-11-23T00:51:00+09:00,0.1,�É�,0.6,��쐼,12.7,96.1,0,0,0,0,0,0,1002.7,1016.7
2020-11-23T00:52:00+09:00,0.1,�É�,0.6,��쐼,12.6,95.9,0,0,0,0,0,0,1002.8,1016.8
2020-11-23T00:53:00+09:00,0.1,�É�,0.4,�k��,12.6,95.9,0,0,0,0,0,0,1002.7,1016.7
2020-11-23T00:54:00+09:00,0.1,�É�,0.4,�k��,12.6,95.9,0,0,0,0,0,0,1002.8,1016.8
2020-11-23T00:55:00+09:00,0.1,�É�,0.4,�k��,12.6,95.9,0,0,0,0,0,0,1002.8,1016.8
2020-11-23T00:56:00+09:00,0.1,�É�,0.4,�k��,12.6,96,0,0,0,0,0,0,1002.8,1016.8
2020-11-23T00:57:00+09:00,0.1,�É�,0.4,�k��,12.6,96,0,0,0,0,0,0,1002.8,1016.8
2020-11-23T00:58:00+09:00,0.1,�É�,0.4,�k��,12.6,96.1,0,0,0,0,0,0,1002.8,1016.8
2020-11-23T00:59:00+09:00,0.1,�É�,0.6,��,12.5,96.1,0,0,0,0,0,0,1002.8,1016.8
2020-11-23T01:00:00+09:00,0.2,�É�,0.8,���k��,12.6,96.3,0,0,0,0,0,0,1002.8,1016.8
2020-11-23T01:01:00+09:00,0.2,�É�,0.9,���k��,12.6,96.3,0,0,0,0,0,0,1002.8,1016.8
2020-11-23T01:02:00+09:00,0.3,�k��,0.9,���k��,12.8,96.4,0,0,0,0,0,0,1002.8,1016.8
2020-11-23T01:03:00+09:00,0.3,�k��,0.9,���k��,12.7,96.4,0,0,0,0,0,0,1002.8,1016.8
2020-11-23T01:04:00+09:00,0.4,�k��,0.9,���k��,12.8,96.4,0,0,0,0,0,0,1002.9,1016.9
2020-11-23T01:05:00+09:00,0.5,�k��,0.9,���k��,13,96.7,0,0,0,0,0,0,1002.9,1016.9
2020-11-23T01:06:00+09:00,0.5,���k��,0.9,���k��,12.7,96.5,0,0,0,0,0,0,1002.9,1016.9
2020-11-23T01:07:00+09:00,0.6,���k��,0.9,���k��,12.7,96.2,0,0,0,0,0,0,1002.9,1016.9
2020-11-23T01:08:00+09:00,0.6,���k��,0.9,���k��,12.6,96.2,0,0,0,0,0,0,1002.9,1016.9
2020-11-23T01:09:00+09:00,0.6,���k��,0.9,���k��,12.6,96.1,0,0,0,0,0,0,1002.9,1016.9
2020-11-23T01:10:00+09:00,0.6,���k��,0.9,���k��,12.5,96.1,0,0,0,0,0,0,1002.9,1016.9
2020-11-23T01:11:00+09:00,0.5,��,0.8,���쐼,12.6,96.2,0,0,0,0,0,0,1002.8,1016.8
2020-11-23T01:12:00+09:00,0.4,��,0.8,���쐼,12.6,96.3,0,0,0,0,0,0,1002.8,1016.8
2020-11-23T01:13:00+09:00,0.4,��,0.8,���쐼,12.7,96.4,0,0,0,0,0,0,1002.8,1016.8
2020-11-23T01:14:00+09:00,0.3,���쐼,0.8,���쐼,12.7,96.4,0,0,0,0,0,0,1002.8,1016.8
2020-11-23T01:15:00+09:00,0.3,�쐼,0.8,���쐼,12.6,96.3,0,0,0,0,0,0,1002.8,1016.8
2020-11-23T01:16:00+09:00,0.2,�É�,0.8,���쐼,12.6,96.2,0,0,0,0,0,0,1002.9,1016.9
2020-11-23T01:17:00+09:00,0.2,�É�,0.8,���쐼,12.6,96.4,0,0,0,0,0,0,1002.9,1016.9
2020-11-23T01:18:00+09:00,0.2,�É�,0.7,��쐼,12.9,96.4,0,0,0,0,0,0,1002.9,1016.9
2020-11-23T01:19:00+09:00,0.2,�É�,0.7,��쐼,13,96.7,0,0,0,0,0,0,1002.9,1016.9
2020-11-23T01:20:00+09:00,0.2,�É�,0.7,��쐼,13.1,96.6,0,0,0,0,0,0,1002.9,1016.9
2020-11-23T01:21:00+09:00,0.2,�É�,0.7,��쐼,12.9,96.4,0,0,0,0,0,0,1002.9,1016.9
2020-11-23T01:22:00+09:00,0.2,�É�,0.7,��쐼,12.6,96,0,0,0,0,0,0,1002.9,1016.9
2020-11-23T01:23:00+09:00,0.2,�É�,0.7,��쐼,12.6,95.8,0,0,0,0,0,0,1002.9,1016.9
2020-11-23T01:24:00+09:00,0.2,�É�,0.7,��쐼,12.7,95.8,0,0,0,0,0,0,1002.8,1016.8
2020-11-23T01:25:00+09:00,0.3,���쐼,0.9,���k��,12.8,96.2,0,0,0,0,0,0,1002.8,1016.8
2020-11-23T01:26:00+09:00,0.3,���쐼,1.4,��,12.7,96,0,0,0,0,0,0,1002.8,1016.8
2020-11-23T01:27:00+09:00,0.4,���쐼,1.4,��,12.7,95.9,0,0,0,0,0,0,1002.9,1016.9
2020-11-23T01:28:00+09:00,0.5,��,1.5,��,12.7,95.9,0,0,0,0,0,0,1002.9,1016.9
2020-11-23T01:29:00+09:00,0.6,��,1.5,��,12.7,96,0,0,0,0,0,0,1002.9,1016.9
2020-11-23T01:30:00+09:00,0.7,��,1.5,��,12.7,96.1,0,0,0,0,0,0,1002.9,1016.9
2020-11-23T01:31:00+09:00,0.8,��,1.6,��,12.7,96,0,0,0,0,0,0,1002.9,1016.9
2020-11-23T01:32:00+09:00,0.9,��,1.7,��,12.7,96,0,0,0,0,0,0,1003,1017
2020-11-23T01:33:00+09:00,1.1,��,1.7,��,12.7,96,0,0,0,0,0,0,1003,1017
2020-11-23T01:34:00+09:00,1.1,��,1.7,��,12.8,96,0,0,0,0,0,0,1003,1017
2020-11-23T01:35:00+09:00,1.2,��,1.7,��,12.7,96,0,0,0,0,0,0,1003,1017
2020-11-23T01:36:00+09:00,1.2,��,1.7,��,12.6,95.8,0,0,0,0,0,0,1003,1017
2020-11-23T01:37:00+09:00,1.2,��,1.7,��,12.6,95.9,0,0,0,0,0,0,1003,1017
2020-11-23T01:38:00+09:00,1.2,��,1.7,��,12.5,95.9,0,0,0,0,0,0,1003,1017
2020-11-23T01:39:00+09:00,1.1,��,1.7,��,12.5,95.8,0,0,0,0,0,0,1003,1017
2020-11-23T01:40:00+09:00,1.1,��,1.7,��,12.6,96,0,0,0,0,0,0,1003,1017
2020-11-23T01:41:00+09:00,1.1,��,1.7,��,12.4,95.9,0,0,0,0,0,0,1003,1017
2020-11-23T01:42:00+09:00,0.9,��,1.6,��,12.4,95.9,0,0,0,0,0,0,1003,1017
2020-11-23T01:43:00+09:00,0.8,��,1.4,��,12.5,96.1,0,0,0,0,0,0,1003,1017
2020-11-23T01:44:00+09:00,0.8,��,1.4,��,12.4,96.2,0,0,0,0,0,0,1003.1,1017.1
2020-11-23T01:45:00+09:00,0.7,��,1.4,��,12.5,96.3,0,0,0,0,0,0,1003,1017
2020-11-23T01:46:00+09:00,0.7,��,1.4,��,12.5,96.3,0,0,0,0,0,0,1003,1017
2020-11-23T01:47:00+09:00,0.6,��,1.4,��,12.5,96.3,0,0,0,0,0,0,1003,1017
2020-11-23T01:48:00+09:00,0.6,��,1.3,��,12.5,96.4,0,0,0,0,0,0,1003.1,1017.1
2020-11-23T01:49:00+09:00,0.5,��,1.2,��,12.5,96.4,0,0,0,0,0,0,1003.1,1017.1
2020-11-23T01:50:00+09:00,0.5,���k��,1.1,��,12.4,96.3,0,0,0,0,0,0,1003.1,1017.1
2020-11-23T01:51:00+09:00,0.4,���k��,0.8,��,12.6,96.4,0,0,0,0,0,0,1003.1,1017.1
2020-11-23T01:52:00+09:00,0.4,���k��,0.7,���k��,12.5,96.5,0,0,0,0,0,0,1003.1,1017.1
2020-11-23T01:53:00+09:00,0.5,���k��,0.8,��,12.4,96.4,0,0,0,0,0,0,1003.2,1017.2
2020-11-23T01:54:00+09:00,0.5,���k��,0.9,�k��,12.5,96.5,0,0,0,0,0,0,1003.2,1017.2
2020-11-23T01:55:00+09:00,0.5,���k��,0.9,�k��,12.6,96.5,0,0,0,0,0,0,1003.2,1017.2
2020-11-23T01:56:00+09:00,0.5,���k��,0.9,�k��,12.5,96.6,0,0,0,0,0,0,1003.2,1017.2
2020-11-23T01:57:00+09:00,0.5,���k��,1,�k��,12.6,96.5,0,0,0,0,0,0,1003.2,1017.2
2020-11-23T01:58:00+09:00,0.5,���k��,1,�k��,12.5,96.6,0,0,0,0,0,0,1003.3,1017.3
2020-11-23T01:59:00+09:00,0.5,�k��,1.1,�k,12.6,96.5,0,0,0,0,0,0,1003.3,1017.3
2020-11-23T02:00:00+09:00,0.5,�k��,1.2,�k�k��,12.6,96.7,0,0,0,0,0,0,1003.3,1017.3
2020-11-23T02:01:00+09:00,0.6,�k��,1.4,�k�k��,12.5,96.6,0,0,0,0,0,0,1003.3,1017.3
2020-11-23T02:02:00+09:00,0.7,�k�k��,1.4,�k�k��,12.6,96.6,0,0,0,0,0,0,1003.3,1017.3
2020-11-23T02:03:00+09:00,0.7,�k�k��,1.4,�k�k��,12.6,96.7,0,0,0,0,0,0,1003.4,1017.4
2020-11-23T02:04:00+09:00,0.7,�k,1.4,�k�k��,12.6,96.7,0,0,0,0,0,0,1003.4,1017.4
2020-11-23T02:05:00+09:00,0.7,�k,1.4,�k�k��,12.6,96.7,0,0,0,0,0,0,1003.4,1017.4
2020-11-23T02:06:00+09:00,0.7,�k,1.4,�k�k��,12.6,96.6,0,0,0,0,0,0,1003.4,1017.4
2020-11-23T02:07:00+09:00,0.6,�k,1.4,�k�k��,12.6,96.7,0,0,0,0,0,0,1003.5,1017.5
2020-11-23T02:08:00+09:00,0.7,�k,1.4,�k�k��,12.7,96.7,0,0,0,0,0,0,1003.5,1017.5
2020-11-23T02:09:00+09:00,0.7,�k�k��,1.4,�k�k��,12.7,96.7,0,0,0,0,0,0,1003.4,1017.4
2020-11-23T02:10:00+09:00,0.6,�k�k��,1.4,�k�k��,12.7,96.8,0,0,0,0,0,0,1003.4,1017.4
2020-11-23T02:11:00+09:00,0.6,�k�k��,1.3,�k�k��,12.7,96.7,0,0,0,0,0,0,1003.4,1017.4
2020-11-23T02:12:00+09:00,0.5,�k�k��,1.2,�k,12.7,96.7,0,0,0,0,0,0,1003.4,1017.4
2020-11-23T02:13:00+09:00,0.4,�k�k��,1.1,��,12.8,96.8,0,0,0,0,0,0,1003.4,1017.4
2020-11-23T02:14:00+09:00,0.4,�k�k��,1.4,�k�k��,12.8,96.8,0,0,0,0,0,0,1003.4,1017.4
2020-11-23T02:15:00+09:00,0.5,�k�k��,1.6,�k��,12.8,96.7,0,0,0,0,0,0,1003.4,1017.4
2020-11-23T02:16:00+09:00,0.6,�k�k��,1.7,�k��,12.8,96.7,0,0,0,0,0,0,1003.4,1017.4
2020-11-23T02:17:00+09:00,0.7,�k��,2,���k��,12.7,96.6,0,0,0,0,0,0,1003.5,1017.5
2020-11-23T02:18:00+09:00,0.8,�k��,2,���k��,12.8,96.7,0,0,0,0,0,0,1003.4,1017.4
2020-11-23T02:19:00+09:00,0.8,�k��,2,���k��,12.9,96.7,0,0,0,0,0,0,1003.5,1017.5
2020-11-23T02:20:00+09:00,0.8,�k��,2,���k��,12.9,96.6,0,0,0,0,0,0,1003.5,1017.5
2020-11-23T02:21:00+09:00,0.8,�k��,2,���k��,12.9,96.5,0,0,0,0,0,0,1003.5,1017.5
2020-11-23T02:22:00+09:00,0.9,�k��,2,���k��,12.9,96.6,0,0,0,0,0,0,1003.5,1017.5
2020-11-23T02:23:00+09:00,0.9,�k��,2,���k��,12.9,96.5,0,0,0,0,0,0,1003.5,1017.5
2020-11-23T02:24:00+09:00,1,�k��,2.1,���k��,12.9,96.4,0,0,0,0,0,0,1003.4,1017.4
2020-11-23T02:25:00+09:00,1.1,�k��,2.2,���k��,12.9,96.4,0,0,0,0,0,0,1003.4,1017.4
2020-11-23T02:26:00+09:00,1.1,�k��,2.2,���k��,12.8,96.3,0,0,0,0,0,0,1003.4,1017.4
2020-11-23T02:27:00+09:00,1.1,���k��,2.2,���k��,12.9,96.3,0,0,0,0,0,0,1003.4,1017.4
2020-11-23T02:28:00+09:00,1.1,�k��,2.2,���k��,12.9,96.3,0,0,0,0,0,0,1003.5,1017.5
2020-11-23T02:29:00+09:00,1.1,�k��,2.2,���k��,12.8,96.3,0,0,0,0,0,0,1003.5,1017.5
2020-11-23T02:30:00+09:00,1.1,�k��,2.2,���k��,12.8,96.2,0,0,0,0,0,0,1003.5,1017.5
2020-11-23T02:31:00+09:00,1.2,�k��,2.2,���k��,12.8,96.1,0,0,0,0,0,0,1003.5,1017.5
2020-11-23T02:32:00+09:00,1.1,�k��,2.2,���k��,12.8,96.2,0,0,0,0,0,0,1003.5,1017.5
2020-11-23T02:33:00+09:00,1.1,�k��,2.2,���k��,12.8,96.2,0,0,0,0,0,0,1003.4,1017.4
2020-11-23T02:34:00+09:00,1.1,�k��,2.2,���k��,12.8,96.2,0,0,0,0,0,0,1003.4,1017.4
2020-11-23T02:35:00+09:00,1,�k��,2.1,�k��,12.9,96.3,0,0,0,0,0,0,1003.5,1017.5
2020-11-23T02:36:00+09:00,0.9,�k��,1.9,���k��,12.8,96.1,0,0,0,0,0,0,1003.5,1017.5
2020-11-23T02:37:00+09:00,0.9,�k��,1.7,���k��,12.9,96.2,0,0,0,0,0,0,1003.5,1017.5
2020-11-23T02:38:00+09:00,0.8,�k��,1.7,���k��,12.8,96.1,0,0,0,0,0,0,1003.5,1017.5
2020-11-23T02:39:00+09:00,0.8,�k��,1.7,���k��,12.8,96.1,0,0,0,0,0,0,1003.5,1017.5
2020-11-23T02:40:00+09:00,0.8,�k��,1.7,���k��,12.8,96.1,0,0,0,0,0,0,1003.5,1017.5
2020-11-23T02:41:00+09:00,0.8,�k��,1.7,���k��,12.8,96.2,0,0,0,0,0,0,1003.5,1017.5
2020-11-23T02:42:00+09:00,0.8,�k��,1.7,���k��,12.8,96.1,0,0,0,0,0,0,1003.5,1017.5
2020-11-23T02:43:00+09:00,0.7,�k��,1.7,���k��,12.7,96,0,0,0,0,0,0,1003.4,1017.4
2020-11-23T02:44:00+09:00,0.7,�k�k��,1.5,�k��,12.8,96.1,0,0,0,0,0,0,1003.4,1017.4
2020-11-23T02:45:00+09:00,0.6,�k�k��,1.5,�k��,12.6,96,0,0,0,0,0,0,1003.4,1017.4
2020-11-23T02:46:00+09:00,0.6,�k,1.5,�k��,12.6,96,0,0,0,0,0,0,1003.4,1017.4
2020-11-23T02:47:00+09:00,0.5,�k,1.5,�k��,12.7,96,0,0,0,0,0,0,1003.4,1017.4
2020-11-23T02:48:00+09:00,0.5,�k��,1.5,�k��,12.8,96.3,0,0,0,0,0,0,1003.5,1017.5
2020-11-23T02:49:00+09:00,0.4,���k��,1,��,12.8,96.2,0,0,0,0,0,0,1003.4,1017.4
2020-11-23T02:50:00+09:00,0.4,��,1,��,12.7,96.2,0,0,0,0,0,0,1003.4,1017.4
2020-11-23T02:51:00+09:00,0.4,���쐼,1,��,12.7,96.1,0,0,0,0,0,0,1003.4,1017.4
2020-11-23T02:52:00+09:00,0.4,���쐼,1,��,12.6,95.9,0,0,0,0,0,0,1003.4,1017.4
2020-11-23T02:53:00+09:00,0.5,���쐼,1.2,���k��,12.6,95.9,0,0,0,0,0,0,1003.4,1017.4
2020-11-23T02:54:00+09:00,0.6,���쐼,1.5,���k��,12.8,96.2,0,0,0,0,0,0,1003.4,1017.4
2020-11-23T02:55:00+09:00,0.6,���쐼,1.5,���k��,12.8,96.2,0,0,0,0,0,0,1003.4,1017.4
2020-11-23T02:56:00+09:00,0.7,���쐼,1.5,���k��,12.7,96.1,0,0,0,0,0,0,1003.4,1017.4
2020-11-23T02:57:00+09:00,0.8,���쐼,1.5,���k��,12.5,95.8,0,0,0,0,0,0,1003.4,1017.4
2020-11-23T02:58:00+09:00,0.8,���쐼,1.5,���k��,12.4,95.7,0,0,0,0,0,0,1003.4,1017.4
2020-11-23T02:59:00+09:00,1,���쐼,2.2,���쐼,12.5,95.9,0,0,0,0,0,0,1003.4,1017.4
2020-11-23T03:00:00+09:00,1.1,���쐼,2.2,���쐼,12.6,96.1,0,0,0,0,0,0,1003.4,1017.4
2020-11-23T03:01:00+09:00,1.2,���쐼,2.2,���쐼,12.5,96.1,0,0,0,0,0,0,1003.4,1017.4
2020-11-23T03:02:00+09:00,1.2,���쐼,2.2,���쐼,12.5,96.1,0,0,0,0,0,0,1003.5,1017.5
2020-11-23T03:03:00+09:00,1.3,���쐼,2.3,���쐼,12.5,96.2,0,0,0,0,0,0,1003.5,1017.5
2020-11-23T03:04:00+09:00,1.3,���쐼,2.5,��,12.6,96.3,0,0,0,0,0,0,1003.5,1017.5
2020-11-23T03:05:00+09:00,1.4,���쐼,2.5,��,12.6,96.3,0,0,0,0,0,0,1003.4,1017.4
2020-11-23T03:06:00+09:00,1.5,���쐼,2.7,��,12.6,96.3,0,0,0,0,0,0,1003.4,1017.4
2020-11-23T03:07:00+09:00,1.5,���쐼,2.7,��,12.6,96.3,0,0,0,0,0,0,1003.5,1017.5
2020-11-23T03:08:00+09:00,1.5,���쐼,2.7,��,12.5,96.3,0,0,0,0,0,0,1003.5,1017.5
2020-11-23T03:09:00+09:00,1.6,���쐼,2.9,���쐼,12.6,96.3,0,0,0,0,0,0,1003.5,1017.5
2020-11-23T03:10:00+09:00,1.7,���쐼,2.9,���쐼,12.6,96.3,0,0,0,0,0,0,1003.5,1017.5
2020-11-23T03:11:00+09:00,1.7,���쐼,2.9,���쐼,12.6,96.3,0,0,0,0,0,0,1003.5,1017.5
2020-11-23T03:12:00+09:00,1.8,���쐼,2.9,���쐼,12.6,96.4,0,0,0,0,0,0,1003.5,1017.5
2020-11-23T03:13:00+09:00,1.8,���쐼,2.9,���쐼,12.6,96.4,0,0,0,0,0,0,1003.5,1017.5
2020-11-23T03:14:00+09:00,1.8,���쐼,2.9,���쐼,12.6,96.2,0,0,0,0,0,0,1003.5,1017.5
2020-11-23T03:15:00+09:00,1.8,���쐼,2.9,���쐼,12.7,96.3,0,0,0,0,0,0,1003.4,1017.4
2020-11-23T03:16:00+09:00,1.8,���쐼,2.9,���쐼,12.7,96.3,0,0,0,0,0,0,1003.5,1017.5
2020-11-23T03:17:00+09:00,1.8,���쐼,2.9,���쐼,12.6,96.2,0,0,0,0,0,0,1003.5,1017.5
2020-11-23T03:18:00+09:00,1.7,���쐼,2.9,���쐼,12.6,96.1,0,0,0,0,0,0,1003.5,1017.5
2020-11-23T03:19:00+09:00,1.6,���쐼,2.8,���쐼,12.7,96.2,0,0,0,0,0,0,1003.5,1017.5
2020-11-23T03:20:00+09:00,1.4,���쐼,2.6,�쐼,12.7,96.2,0,0,0,0,0,0,1003.5,1017.5
2020-11-23T03:21:00+09:00,1.2,���쐼,2.6,�쐼,12.7,96.2,0,0,0,0,0,0,1003.6,1017.6
2020-11-23T03:22:00+09:00,1.1,���쐼,2.3,���쐼,12.7,96.2,0,0,0,0,0,0,1003.5,1017.5
2020-11-23T03:23:00+09:00,0.9,�쐼,2.2,���쐼,12.6,96,0,0,0,0,0,0,1003.5,1017.5
2020-11-23T03:24:00+09:00,0.8,�쐼,2.2,���쐼,12.8,96.1,0,0,0,0,0,0,1003.6,1017.6
2020-11-23T03:25:00+09:00,0.7,�쐼,1.9,���쐼,12.6,96.1,0,0,0,0,0,0,1003.6,1017.6
2020-11-23T03:26:00+09:00,0.7,��쐼,1.8,���쐼,12.5,95.9,0,0,0,0,0,0,1003.6,1017.6
2020-11-23T03:27:00+09:00,0.7,��쐼,1.8,���쐼,12.5,95.9,0,0,0,0,0,0,1003.5,1017.5
2020-11-23T03:28:00+09:00,0.6,��,1.8,���쐼,12.5,95.9,0,0,0,0,0,0,1003.5,1017.5
2020-11-23T03:29:00+09:00,0.6,��,1.8,��,12.5,96,0,0,0,0,0,0,1003.5,1017.5
2020-11-23T03:30:00+09:00,0.6,��쓌,1.8,��,12.7,96.3,0,0,0,0,0,0,1003.5,1017.5
2020-11-23T03:31:00+09:00,0.6,��쓌,1.8,��,12.7,96.4,0,0,0,0,0,0,1003.5,1017.5
2020-11-23T03:32:00+09:00,0.6,��,1.8,��,12.7,96.3,0,0,0,0,0,0,1003.5,1017.5
2020-11-23T03:33:00+09:00,0.6,��쐼,1.8,��,12.7,96.3,0,0,0,0,0,0,1003.6,1017.6
2020-11-23T03:34:00+09:00,0.6,��쐼,1.8,��,12.6,96.3,0,0,0,0,0,0,1003.6,1017.6
2020-11-23T03:35:00+09:00,0.5,��쐼,1.8,��,12.6,96.2,0,0,0,0,0,0,1003.6,1017.6
2020-11-23T03:36:00+09:00,0.4,��쐼,1.8,��,12.6,96.3,0,0,0,0,0,0,1003.6,1017.6
2020-11-23T03:37:00+09:00,0.3,��쐼,1.4,��쐼,12.6,96.3,0,0,0,0,0,0,1003.6,1017.6
2020-11-23T03:38:00+09:00,0.3,�쐼,1.1,��쓌,12.6,96.2,0,0,0,0,0,0,1003.6,1017.6
2020-11-23T03:39:00+09:00,0.3,�쐼,1,��쐼,12.6,96.3,0,0,0,0,0,0,1003.5,1017.5
2020-11-23T03:40:00+09:00,0.4,�쐼,1.1,��,12.6,96.4,0,0,0,0,0,0,1003.5,1017.5
2020-11-23T03:41:00+09:00,0.4,�쐼,1.2,��,12.6,96.3,0,0,0,0,0,0,1003.5,1017.5
2020-11-23T03:42:00+09:00,0.5,��쐼,1.8,��쐼,12.6,96.3,0,0,0,0,0,0,1003.4,1017.4
2020-11-23T03:43:00+09:00,0.6,��쐼,1.8,��쐼,12.6,96.3,0,0,0,0,0,0,1003.4,1017.4
2020-11-23T03:44:00+09:00,0.7,��쐼,1.8,��쐼,12.5,96.3,0,0,0,0,0,0,1003.4,1017.4
2020-11-23T03:45:00+09:00,0.7,��쐼,1.8,��쐼,12.5,96.2,0,0,0,0,0,0,1003.4,1017.4
2020-11-23T03:46:00+09:00,0.8,��쐼,1.8,��쐼,12.5,96.3,0,0,0,0,0,0,1003.4,1017.4
2020-11-23T03:47:00+09:00,0.7,��쐼,1.8,��쐼,12.6,96.4,0,0,0,0,0,0,1003.4,1017.4
2020-11-23T03:48:00+09:00,0.7,��,1.8,��쐼,12.6,96.5,0,0,0,0,0,0,1003.4,1017.4
2020-11-23T03:49:00+09:00,0.8,��쐼,1.8,��쐼,12.6,96.4,0,0,0,0,0,0,1003.4,1017.4
2020-11-23T03:50:00+09:00,0.8,��,1.8,��쐼,12.4,96.2,0,0,0,0,0,0,1003.4,1017.4
2020-11-23T03:51:00+09:00,0.8,��,1.8,��쐼,12.3,96.2,0,0,0,0,0,0,1003.4,1017.4
2020-11-23T03:52:00+09:00,0.8,��,1.8,�k�k��,12.2,96,0,0,0,0,0,0,1003.4,1017.4
2020-11-23T03:53:00+09:00,0.7,�k��,1.8,�k�k��,12.2,96.1,0,0,0,0,0,0,1003.4,1017.4
2020-11-23T03:54:00+09:00,0.6,�k�k��,1.8,�k�k��,12.2,96.3,0,0,0,0,0,0,1003.4,1017.4
2020-11-23T03:55:00+09:00,0.6,�k�k��,1.8,�k�k��,12.3,96.4,0,0,0,0,0,0,1003.4,1017.4
2020-11-23T03:56:00+09:00,0.6,�k�k��,1.8,�k�k��,12.3,96.4,0,0,0,0,0,0,1003.4,1017.4
2020-11-23T03:57:00+09:00,0.7,�k�k��,1.8,�k�k��,12.2,96.4,0,0,0,0,0,0,1003.5,1017.5
2020-11-23T03:58:00+09:00,0.8,�k�k��,2.1,�k�k��,12.3,96.5,0,0,0,0,0,0,1003.5,1017.5
2020-11-23T03:59:00+09:00,0.8,�k�k��,2.1,�k�k��,12.2,96.5,0,0,0,0,0,0,1003.5,1017.5
2020-11-23T04:00:00+09:00,0.9,�k�k��,2.1,�k�k��,12.3,96.5,0,0,0,0,0,0,1003.5,1017.5
2020-11-23T04:01:00+09:00,0.9,�k�k��,2.1,�k�k��,12.3,96.6,0,0,0,0,0,0,1003.5,1017.5
2020-11-23T04:02:00+09:00,0.9,�k�k��,2.1,�k�k��,12.3,96.6,0,0,0,0,0,0,1003.5,1017.5
2020-11-23T04:03:00+09:00,0.9,�k��,2.1,�k�k��,12.3,96.7,0,0,0,0,0,0,1003.5,1017.5
2020-11-23T04:04:00+09:00,1,�k��,2.1,�k�k��,12.3,96.7,0,0,0,0,0,0,1003.5,1017.5
2020-11-23T04:05:00+09:00,1.1,�k��,2.1,�k�k��,12.3,96.7,0,0,0,0,0,0,1003.5,1017.5
2020-11-23T04:06:00+09:00,1.1,�k��,2.1,�k�k��,12.2,96.6,0,0,0,0,0,0,1003.5,1017.5
2020-11-23T04:07:00+09:00,1,���k��,2.1,�k�k��,12.1,96.5,0,0,0,0,0,0,1003.5,1017.5
2020-11-23T04:08:00+09:00,0.9,���k��,2,�k�k��,12,96.4,0,0,0,0,0,0,1003.5,1017.5
2020-11-23T04:09:00+09:00,0.8,���k��,1.7,�k��,12.2,96.6,0,0,0,0,0,0,1003.5,1017.5
2020-11-23T04:10:00+09:00,0.7,�k��,1.6,�k��,12.3,96.8,0,0,0,0,0,0,1003.5,1017.5
2020-11-23T04:11:00+09:00,0.6,�k��,1.4,���k��,12.2,96.7,0,0,0,0,0,0,1003.5,1017.5
2020-11-23T04:12:00+09:00,0.6,�k��,1.4,���k��,12.1,96.7,0,0,0,0,0,0,1003.5,1017.5
2020-11-23T04:13:00+09:00,0.5,�k��,1.4,���k��,12.1,96.6,0,0,0,0,0,0,1003.5,1017.5
2020-11-23T04:14:00+09:00,0.4,�k��,1.4,���k��,12,96.6,0,0,0,0,0,0,1003.5,1017.5
2020-11-23T04:15:00+09:00,0.4,�k�k��,1.5,��,12.1,96.6,0,0,0,0,0,0,1003.6,1017.6
2020-11-23T04:16:00+09:00,0.5,�k,1.5,��,12.1,96.8,0,0,0,0,0,0,1003.6,1017.6
2020-11-23T04:17:00+09:00,0.6,�k�k��,1.5,��,12.1,96.7,0,0,0,0,0,0,1003.5,1017.5
2020-11-23T04:18:00+09:00,0.6,�k��,1.5,��,12.1,96.8,0,0,0,0,0,0,1003.5,1017.5
2020-11-23T04:19:00+09:00,0.6,�k��,1.5,��,12.2,96.9,0,0,0,0,0,0,1003.6,1017.6
2020-11-23T04:20:00+09:00,0.6,�k��,1.5,��,12.2,96.9,0,0,0,0,0,0,1003.6,1017.6
2020-11-23T04:21:00+09:00,0.6,�k��,1.5,��,12.1,96.8,0,0,0,0,0,0,1003.6,1017.6
2020-11-23T04:22:00+09:00,0.7,�k��,1.5,��,12,96.7,0,0,0,0,0,0,1003.6,1017.6
2020-11-23T04:23:00+09:00,0.8,�k��,1.5,��,12,96.7,0,0,0,0,0,0,1003.7,1017.7
2020-11-23T04:24:00+09:00,0.9,�k�k��,2.3,�k,12,96.6,0,0,0,0,0,0,1003.7,1017.7
2020-11-23T04:25:00+09:00,0.8,�k�k��,2.3,�k,12,96.7,0,0,0,0,0,0,1003.8,1017.8
2020-11-23T04:26:00+09:00,0.8,�k�k��,2.4,�k�k��,11.9,96.6,0,0,0,0,0,0,1003.8,1017.8
2020-11-23T04:27:00+09:00,0.8,�k�k��,2.4,�k�k��,11.9,96.6,0,0,0,0,0,0,1003.8,1017.8
2020-11-23T04:28:00+09:00,0.9,�k,2.4,�k�k��,11.9,96.7,0,0,0,0,0,0,1003.8,1017.8
2020-11-23T04:29:00+09:00,0.9,�k,2.4,�k�k��,11.9,96.6,0,0,0,0,0,0,1003.8,1017.8
2020-11-23T04:30:00+09:00,1,�k,2.4,�k�k��,11.9,96.6,0,0,0,0,0,0,1003.8,1017.8
2020-11-23T04:31:00+09:00,1,�k�k��,2.4,�k�k��,11.9,96.7,0,0,0,0,0,0,1003.8,1017.8
2020-11-23T04:32:00+09:00,1,�k�k��,2.4,�k�k��,11.8,96.6,0,0,0,0,0,0,1003.8,1017.8
2020-11-23T04:33:00+09:00,1.1,�k,2.4,�k�k��,11.8,96.6,0,0,0,0,0,0,1003.7,1017.7
2020-11-23T04:34:00+09:00,1.2,�k,3,�k�k��,11.8,96.6,0,0,0,0,0,0,1003.7,1017.7
2020-11-23T04:35:00+09:00,1.4,�k,3.2,�k�k��,11.7,96.4,0,0,0,0,0,0,1003.8,1017.8
2020-11-23T04:36:00+09:00,1.6,�k,3.9,�k�k��,11.8,96.5,0,0,0,0,0,0,1003.7,1017.7
2020-11-23T04:37:00+09:00,1.7,�k,3.9,�k�k��,12.1,96.8,0,0,0,0,0,0,1003.7,1017.7
2020-11-23T04:38:00+09:00,1.9,�k,3.9,�k�k��,12.2,96.9,0,0,0,0,0,0,1003.7,1017.7
2020-11-23T04:39:00+09:00,2.1,�k�k��,3.9,�k�k��,12.3,96.9,0,0,0,0,0,0,1003.8,1017.8
2020-11-23T04:40:00+09:00,2.2,�k�k��,3.9,�k�k��,12.3,96.8,0,0,0,0,0,0,1003.7,1017.7
2020-11-23T04:41:00+09:00,2.3,�k�k��,3.9,�k�k��,12.1,96.6,0,0,0,0,0,0,1003.8,1017.8
2020-11-23T04:42:00+09:00,2.4,�k�k��,5,�k�k��,12.2,96.4,0,0,0,0,0,0,1003.8,1017.8
2020-11-23T04:43:00+09:00,2.6,�k,5.8,�k�k��,12.3,96.4,0,0,0,0,0,0,1003.8,1017.8
2020-11-23T04:44:00+09:00,2.6,�k,5.8,�k�k��,12.5,96.2,0,0,0,0,0,0,1003.8,1017.8
2020-11-23T04:45:00+09:00,2.6,�k,5.8,�k�k��,12.8,96.1,0,0,0,0,0,0,1003.8,1017.8
2020-11-23T04:46:00+09:00,2.6,�k,5.9,�k�k��,12.9,95.7,0,0,0,0,0,0,1003.8,1017.8
2020-11-23T04:47:00+09:00,2.7,�k,6.4,�k�k��,13.1,94.7,0,0,0,0,0,0,1003.8,1017.8
2020-11-23T04:48:00+09:00,2.9,�k,6.4,�k�k��,13.1,92.9,0,0,0,0,0,0,1003.8,1017.8
2020-11-23T04:49:00+09:00,2.9,�k,6.4,�k�k��,13.1,91.2,0,0,0,0,0,0,1003.8,1017.8
2020-11-23T04:50:00+09:00,3.1,�k,6.7,�k,13.2,89.8,0,0,0,0,0,0,1003.8,1017.8
2020-11-23T04:51:00+09:00,3.3,�k,6.7,�k,13.2,88.3,0,0,0,0,0,0,1003.8,1017.8
2020-11-23T04:52:00+09:00,3.4,�k,6.7,�k,13.2,86.6,0,0,0,0,0,0,1003.9,1017.9
2020-11-23T04:53:00+09:00,3.2,�k,6.7,�k,13.2,85.5,0,0,0,0,0,0,1003.9,1017.9
2020-11-23T04:54:00+09:00,3.2,�k,6.7,�k,13.2,84.5,0,0,0,0,0,0,1003.9,1017.9
2020-11-23T04:55:00+09:00,3.2,�k,6.7,�k,13.2,83.9,0,0,0,0,0,0,1003.9,1017.9
2020-11-23T04:56:00+09:00,3.3,�k,6.7,�k,13.3,83.1,0,0,0,0,0,0,1003.9,1017.9
2020-11-23T04:57:00+09:00,3.1,�k,6.7,�k,13.2,82.3,0,0,0,0,0,0,1003.9,1017.9
2020-11-23T04:58:00+09:00,3,�k,6.7,�k,13.2,81.8,0,0,0,0,0,0,1003.9,1017.9
2020-11-23T04:59:00+09:00,2.8,�k,6.7,�k,13.2,81.7,0,0,0,0,0,0,1004,1018
2020-11-23T05:00:00+09:00,2.7,�k�k��,6.7,�k,13.1,81.9,0,0,0,0,0,0,1003.9,1017.9
2020-11-23T05:01:00+09:00,2.7,�k�k��,6.7,�k,13.1,81.8,0,0,0,0,0,0,1004,1018
2020-11-23T05:02:00+09:00,2.7,�k�k��,6.5,�k�k��,13.1,81.7,0,0,0,0,0,0,1004,1018